Location: Delettes
(50.6178°N, 2.2123°E)
Time: 15:32:10
(UTC+00:00)

STARLINK-30 - Pass Details

Date: 27 February 2020
Orbit: 528 x 531 km, 53.0° (Epoch: 28 March)

Event Time Altitude Azimuth Distance (km) Brightness Sun altitude
Rises 17:46:30 0° 260° (W) 2,664 10.5 -3.7°
Reaches altitude 10° 17:48:43 10° 263° (W) 1,776 8.3 -4.0°
Maximum altitude 17:52:44 71° 347° (NNW) 565 3.7 -4.7°
Drops below altitude 10° 17:56:47 10° 72° (ENE) 1,782 5.6 -5.3°
Enters shadow 17:57:30 - 74° (ENE) 2,068 5.9 -5.4°
